星链-35654(STARLINK-35654)

导读

STARLINK-35654是美国太空探索技术公司(SpaceX)于2025年11月15日发射的星链(Starlink)低轨通信卫星,属于全球规模最大卫星互联网星座的一员。它采用平板设计,搭载Ku/Ka波段通信载荷与霍尔推进器,具备自主避撞能力,旨在为全球偏远地区提供高速宽带互联网服务。卫星寿命末期会主动离轨,残骸进入大气层完全烧毁。

基本信息
目录编号:
66483
目录名称:
STARLINK-35654
国际标识:
2025-262AD
轨道中心:
EARTH
卫星名称:
星链-35654
卫星全名:
星链-35654(STARLINK-35654)
卫星状态:
在轨 (已飞行293 天)
发射日期:
2025-11-15 UTC
国别 :
美国 (US)
星等 :
--
轨道信息
数据来源 国际轨道数据
星历时间: 2026-09-04T00:47:08+0800
19小时前
查看轨道信息
半长轴: 6861.177km
偏心率: 0.0000998
轨道倾角: 43.000°
近地点辐角 271.380°
升交点赤经 10.602°
平近点角 88.694°
近地点: 482.355km
远地点: 483.725km
周期: 94.267分钟
每日圈数: 15.275832
详细信息
固有亮度:
5
最大亮度:
2.5
卫星平台:
Starlink V1.0
覆盖范围:
全球
运营商:
太空探索技术公司
运营商所在国:
美国
制造商(研发单位):
太空探索技术公司
制造商所在国:
美国
使用方式:
暂无
卫星简介
Starlink 计划是 SpaceX 推出的全球卫星互联网项目,通过发射低轨道卫星,为全球尤其是偏远地区提供高速、低延迟的互联网服务。自 2019 年起,Starlink 已部署数千颗卫星,旨在缩小全球数字鸿沟,推动互联网普及。该项目还为军事、航空等行业提供通信支持,带来广泛经济效益。
2D轨道图
3D轨道图
轨道高度分析图
轨道倾角分析图
轨道综合分析图
查看轨道综合分析图